Weather History for VTBS - November, 2012

Change the Weather History Date:

Friday, November 2, 2012

  Actual Average (VTBD) Record (VTBD)
Temperature  
Mean Temperature 86 °F -  
Max Temperature 94 °F 89 °F 96 °F (1996)
Min Temperature 77 °F 72 °F 68 °F (2000)
Cooling Degree Days 20    
Growing Degree Days 36 (Base 50)    
Moisture  
Dew Point 71 °F    
Average Humidity 64    
Maximum Humidity 83    
Minimum Humidity 39    
Precipitation  
Precipitation 0.00 in 0.08 in - ()
Sea Level Pressure  
Sea Level Pressure 29.84 in    
Wind  
Wind Speed 3 mph ()    
Max Wind Speed 8 mph    
Max Gust Speed -    
Visibility 5.9 miles    
Events      
Averages and records for this station are not official NWS values.
T = Trace of Precipitation, MM = Missing Value Source: Averaged Metar Reports

Daily Weather History Graph

Daily Weather History Graph

Search for Another Location

Airport or City:

Trip Planner

Search our weather history database for the weather conditions in past years. The results will help you decide how hot, cold, wet, or windy it might be!

Date:

Astronomy

Nov. 02, 2012 Rise Set
Actual Time 6:10 AM ICT 5:48 PM ICT
Civil Twilight 5:48 AM ICT 6:10 PM ICT
Nautical Twilight 5:23 AM ICT 6:35 PM ICT
Astronomical Twilight 4:57 AM ICT 7:01 PM ICT
Moon 8:28 PM ICT (11/2) 8:46 AM ICT (11/2)
Length of Visible Light 12h 22m
Length of Day
11h 38m
Waning Gibbous, 90% of the Moon is Illuminated
Nov 2
Waning Gibbous
Nov 7
Last Quarter
Nov 14
New
Nov 20
First Quarter
Nov 28
Full

Hourly Weather History & Observations

Time (ICT) Temp. Heat Index Dew Point Humidity Pressure Visibility Wind Dir Wind Speed Gust Speed Precip Events Conditions
12:00 AM 82.4 °F 87.2 °F 71.6 °F 70% 29.89 in 6.2 mi East 4.6 mph - N/A   Mostly Cloudy
12:30 AM 80.6 °F 85.4 °F 73.4 °F 79% 29.86 in 6.2 mi East 3.5 mph - N/A   Mostly Cloudy
1:00 AM 80 °F - 72 °F 70% 29.85 in 5 mi Calm Calm - -   Mist
1:00 AM 80.6 °F 85.4 °F 73.4 °F 79% 29.86 in 6.2 mi East 4.6 mph - N/A   Mostly Cloudy
1:30 AM 80.6 °F 84.6 °F 71.6 °F 74% 29.86 in 6.2 mi East 5.8 mph - N/A   Scattered Clouds
2:00 AM 80.6 °F 84.6 °F 71.6 °F 74% 29.86 in 6.2 mi Calm Calm - N/A   Scattered Clouds
2:30 AM 80.6 °F 84.6 °F 71.6 °F 74% 29.83 in 6.2 mi East 2.3 mph - N/A   Scattered Clouds
3:00 AM 78.8 °F - 69.8 °F 74% 29.83 in 6.2 mi West 2.3 mph - N/A   Scattered Clouds
3:30 AM 78.8 °F - 71.6 °F 78% 29.83 in 6.2 mi WNW 3.5 mph - N/A   Scattered Clouds
4:00 AM 78.8 °F - 69.8 °F 74% 29.83 in 6.2 mi NNE 2.3 mph - N/A   Scattered Clouds
4:30 AM 77.0 °F - 71.6 °F 83% 29.83 in 6.2 mi Calm Calm - N/A   Scattered Clouds
5:00 AM 78.8 °F - 71.6 °F 78% 29.86 in 6.2 mi North 3.5 mph - N/A   Scattered Clouds
5:30 AM 78.8 °F - 69.8 °F 74% 29.86 in 6.2 mi Calm Calm - N/A   Scattered Clouds
6:00 AM 78.8 °F - 69.8 °F 74% 29.86 in 6.2 mi Calm Calm - N/A   Scattered Clouds
6:30 AM 78.8 °F - 69.8 °F 74% 29.86 in 5.0 mi NW 4.6 mph - N/A   Mostly Cloudy
7:00 AM 78 °F - 72 °F 78% 29.86 in 5 mi Calm Calm - -   Mist
7:00 AM 78.8 °F - 71.6 °F 78% 29.89 in 5.0 mi NNE 5.8 mph - N/A   Mostly Cloudy
7:30 AM 80.6 °F 84.6 °F 71.6 °F 74% 29.89 in 4.3 mi NNW 5.8 mph - N/A   Mostly Cloudy
8:00 AM 80.6 °F 84.6 °F 71.6 °F 74% 29.89 in 5.6 mi NNW 8.1 mph - N/A   Scattered Clouds
8:30 AM 82.4 °F 86.3 °F 69.8 °F 66% 29.92 in 5.6 mi NNW 8.1 mph - N/A   Scattered Clouds
9:00 AM 84.2 °F 88.4 °F 69.8 °F 62% 29.92 in 6.2 mi NNE 4.6 mph - N/A   Scattered Clouds
9:30 AM 84.2 °F 89.6 °F 71.6 °F 66% 29.92 in 6.2 mi ENE 4.6 mph - N/A   Scattered Clouds
10:00 AM 86.0 °F 90.4 °F 69.8 °F 58% 29.92 in 6.2 mi ENE 4.6 mph - N/A   Scattered Clouds
10:30 AM 86.0 °F 90.4 °F 69.8 °F 58% 29.89 in 6.2 mi NE 6.9 mph - N/A   Mostly Cloudy
11:00 AM 87.8 °F 92.6 °F 69.8 °F 55% 29.89 in 6.2 mi ENE 5.8 mph - N/A   Mostly Cloudy
11:30 AM 87.8 °F 92.6 °F 69.8 °F 55% 29.86 in 6.2 mi ENE 6.9 mph - N/A   Mostly Cloudy
12:00 PM 89.6 °F 93.4 °F 68.0 °F 49% 29.86 in 6.2 mi NE 6.9 mph - N/A   Mostly Cloudy
12:30 PM 89.6 °F 94.7 °F 69.8 °F 52% 29.83 in 6.2 mi NE 4.6 mph - N/A   Mostly Cloudy
1:00 PM 92 °F - 70 °F 39% 29.80 in 6 mi NE 2.3 mph - -   Scattered Clouds
1:00 PM 89.6 °F 94.7 °F 69.8 °F 52% 29.83 in 6.2 mi NE 6.9 mph - N/A   Mostly Cloudy
1:30 PM 91.4 °F 96.8 °F 69.8 °F 49% 29.80 in 6.2 mi ENE 4.6 mph - N/A   Mostly Cloudy
2:00 PM 91.4 °F 96.8 °F 69.8 °F 49% 29.80 in 6.2 mi NE 4.6 mph - N/A   Mostly Cloudy
2:30 PM 89.6 °F 94.7 °F 69.8 °F 52% 29.77 in 6.2 mi NNE 4.6 mph - N/A   Mostly Cloudy
3:00 PM 89.6 °F 94.7 °F 69.8 °F 52% 29.77 in 5.6 mi NNE 5.8 mph - N/A   Mostly Cloudy
3:30 PM 89.6 °F 94.7 °F 69.8 °F 52% 29.77 in 5.6 mi NE 5.8 mph - N/A   Mostly Cloudy
4:00 PM 87.8 °F 92.6 °F 69.8 °F 55% 29.77 in 5.6 mi NNE 5.8 mph - N/A   Mostly Cloudy
4:30 PM 89.6 °F 94.7 °F 69.8 °F 52% 29.77 in 5.6 mi NE 3.5 mph - N/A   Mostly Cloudy
5:00 PM 87.8 °F 93.8 °F 71.6 °F 58% - 5.0 mi NNW 5.8 mph - N/A   Mostly Cloudy
5:30 PM 87.8 °F 93.8 °F 71.6 °F 58% - 5.0 mi Variable 2.3 mph - N/A   Mostly Cloudy
6:00 PM 86.0 °F 91.8 °F 71.6 °F 62% 29.80 in 5.0 mi Variable 2.3 mph - N/A   Mostly Cloudy
6:30 PM 86.0 °F 90.4 °F 69.8 °F 58% 29.80 in 6.2 mi North 4.6 mph - N/A   Mostly Cloudy
7:00 PM 87 °F - 75 °F 60% 29.80 in 5 mi West 2.3 mph - -   Mist
7:00 PM 84.2 °F 89.6 °F 71.6 °F 66% 29.80 in 6.2 mi Calm Calm - N/A   Mostly Cloudy
7:30 PM 84.2 °F 88.4 °F 69.8 °F 62% 29.83 in 6.2 mi NNE 3.5 mph - N/A   Mostly Cloudy
8:00 PM 84.2 °F 88.4 °F 69.8 °F 62% 29.83 in 6.2 mi North 4.6 mph - N/A   Mostly Cloudy
8:30 PM 84.2 °F 88.4 °F 69.8 °F 62% 29.83 in 6.2 mi Calm Calm - N/A   Mostly Cloudy
9:00 PM 84.2 °F 88.4 °F 69.8 °F 62% 29.86 in 6.2 mi Calm Calm - N/A   Mostly Cloudy
9:30 PM 84.2 °F 88.4 °F 69.8 °F 62% 29.86 in 6.2 mi Calm Calm - N/A   Mostly Cloudy
10:00 PM 84.2 °F 88.4 °F 69.8 °F 62% 29.86 in 6.2 mi Calm Calm - N/A   Mostly Cloudy
10:30 PM 84.2 °F 88.4 °F 69.8 °F 62% 29.86 in 6.2 mi NNW 4.6 mph - N/A   Mostly Cloudy
11:00 PM 82.4 °F 86.3 °F 69.8 °F 66% 29.83 in 5.0 mi Calm Calm - N/A   Mostly Cloudy
11:30 PM 82.4 °F 87.2 °F 71.6 °F 70% 29.83 in 5.0 mi Calm Calm - N/A   Mostly Cloudy